| time (UTC) | temp C | wind direction | speed KPH | gust KPH | rain 1hr cm | rain 24hr cm | rain mn cm | humidity % | barometer mb |
| 20260503215624 | 9 | 216 | 8.0 | 9.7 | 0.00 | 0.18 | 0.18 | 82 | 1008.7 |
| 20260503215120 | 9 | 229 | 4.8 | 4.8 | 0.00 | 0.18 | 0.18 | 82 | 1008.8 |
| 20260503214619 | 9 | 231 | 4.8 | 8.0 | 0.00 | 0.18 | 0.18 | 83 | 1008.9 |
| 20260503214114 | 8 | 195 | 4.8 | 8.0 | 0.00 | 0.18 | 0.18 | 84 | 1008.9 |
| 20260503213609 | 8 | 228 | 4.8 | 4.8 | 0.00 | 0.18 | 0.18 | 84 | 1009.0 |
| 20260503213104 | 8 | 235 | 4.8 | 4.8 | 0.00 | 0.18 | 0.18 | 85 | 1009.1 |
| 20260503212602 | 8 | 235 | 9.7 | 14.5 | 0.00 | 0.18 | 0.18 | 84 | 1009.1 |
| 20260503212059 | 8 | 213 | 3.2 | 3.2 | 0.13 | 0.18 | 0.18 | 84 | 1009.2 |
| 20260503211556 | 8 | 238 | 6.4 | 9.7 | 0.13 | 0.18 | 0.18 | 84 | 1009.1 |
| 20260503211051 | 8 | 245 | 6.4 | 8.0 | 0.00 | 0.15 | 0.15 | 83 | 1009.4 |
| 20260503210549 | 8 | 234 | 6.4 | 8.0 | 0.00 | 0.15 | 0.15 | 83 | 1009.1 |
| 20260503210044 | 8 | 218 | 6.4 | 8.0 | 0.00 | 0.15 | 0.15 | 85 | 1008.9 |
| 20260503205541 | 8 | 239 | 4.8 | 4.8 | 0.00 | 0.15 | 0.15 | 85 | 1008.9 |
| 20260503205038 | 8 | 230 | 4.8 | 4.8 | 0.00 | 0.15 | 0.15 | 86 | 1009.1 |
| 20260503204534 | 8 | 271 | 8.0 | 11.3 | 0.18 | 0.15 | 0.15 | 86 | 1009.1 |
| 20260503204031 | 7 | 266 | 6.4 | 8.0 | 0.18 | 0.15 | 0.15 | 86 | 1009.1 |
| 20260503203529 | 7 | 266 | 3.2 | 3.2 | 0.13 | 0.13 | 0.13 | 86 | 1009.1 |
| 20260503203026 | 7 | 258 | 4.8 | 4.8 | 0.30 | 0.13 | 0.13 | 86 | 1009.4 |
| 20260503202524 | 7 | 238 | 11.3 | 12.9 | 0.18 | 0.10 | 0.10 | 85 | 1009.3 |
| 20260503202021 | 8 | 267 | 11.3 | 14.5 | 0.13 | 0.08 | 0.08 | 85 | 1009.4 |
| 20260503201520 | 8 | 299 | 6.4 | 9.7 | 0.13 | 0.08 | 0.08 | 84 | 1009.7 |
| 20260503201016 | 8 | 234 | 6.4 | 8.0 | 0.00 | 0.05 | 0.05 | 82 | 1009.7 |
| 20260503200512 | 8 | 217 | 3.2 | 3.2 | 0.00 | 0.05 | 0.05 | 82 | 1009.6 |
| 20260503200009 | 8 | 286 | 8.0 | 11.3 | 0.00 | 0.05 | 0.05 | 82 | 1009.7 |
| 20260503195507 | 8 | 313 | 8.0 | 12.9 | 0.18 | 0.05 | 0.05 | 83 | 1009.7 |
| 20260503195003 | 8 | 217 | 4.8 | 4.8 | 0.18 | 0.05 | 0.05 | 81 | 1010.0 |
| 20260503194501 | 8 | 263 | 8.0 | 11.3 | 0.13 | 0.03 | 0.03 | 79 | 1009.9 |
| 20260503193955 | 8 | 249 | 4.8 | 9.7 | 0.13 | 0.03 | 0.03 | 78 | 1009.8 |
| 20260503193451 | 9 | 232 | 4.8 | 4.8 | 0.00 | 0.00 | 0.00 | 77 | 1009.9 |
| 20260503192947 | 9 | 310 | 4.8 | 8.0 | 0.00 | 0.00 | 0.00 | 76 | 1010.0 |
| 20260503192443 | 9 | 278 | 4.8 | 4.8 | 0.00 | 0.00 | 0.00 | 76 | 1009.9 |
| 20260503191939 | 9 | 251 | 3.2 | 4.8 | 0.00 | 0.00 | 0.00 | 75 | 1010.0 |
| 20260503191437 | 9 | 223 | 8.0 | 11.3 | 0.00 | 0.00 | 0.00 | 74 | 1009.9 |
| 20260503190933 | 10 | 254 | 14.5 | 20.9 | 0.00 | 0.00 | 0.00 | 66 | 1010.2 |
| 20260503190431 | 11 | 276 | 17.7 | 24.1 | 0.00 | 0.00 | 0.00 | 57 | 1009.8 |
| 20260503185927 | 11 | 305 | 11.3 | 12.9 | 0.00 | 0.00 | 0.00 | 54 | 1009.8 |
| 20260503185424 | 12 | 239 | 17.7 | 27.4 | 0.00 | 0.00 | 0.00 | 53 | 1009.6 |
| 20260503184923 | 12 | 242 | 4.8 | 8.0 | 0.00 | 0.00 | 0.00 | 52 | 1009.9 |
| 20260503184420 | 12 | 183 | 9.7 | 11.3 | 0.00 | 0.00 | 0.00 | 49 | 1009.7 |
| 20260503183916 | 13 | 235 | 14.5 | 20.9 | 0.00 | 0.00 | 0.00 | 45 | 1009.4 |
| 20260503183413 | 13 | 235 | 14.5 | 20.9 | 0.00 | 0.00 | 0.00 | 43 | 1009.3 |
| 20260503182910 | 13 | 259 | 9.7 | 11.3 | 0.00 | 0.00 | 0.00 | 42 | 1009.3 |
| 20260503182409 | 13 | 245 | 11.3 | 12.9 | 0.00 | 0.00 | 0.00 | 44 | 1009.3 |
| 20260503181906 | 13 | 290 | 12.9 | 14.5 | 0.00 | 0.00 | 0.00 | 43 | 1009.3 |
| 20260503181403 | 13 | 236 | 16.1 | 16.1 | 0.00 | 0.00 | 0.00 | 44 | 1009.4 |
| 20260503180859 | 13 | 220 | 6.4 | 8.0 | 0.00 | 0.00 | 0.00 | 44 | 1009.5 |
| 20260503180357 | 13 | 222 | 9.7 | 14.5 | 0.00 | 0.00 | 0.00 | 45 | 1009.4 |
| 20260503175853 | 13 | 303 | 9.7 | 14.5 | 0.00 | 0.00 | 0.00 | 42 | 1009.4 |
| 20260503175351 | 12 | 287 | 6.4 | 9.7 | 0.00 | 0.00 | 0.00 | 43 | 1009.6 |
| 20260503174847 | 13 | 244 | 8.0 | 11.3 | 0.00 | 0.00 | 0.00 | 42 | 1009.5 |
| 20260503174345 | 13 | 266 | 14.5 | 20.9 | 0.00 | 0.00 | 0.00 | 40 | 1009.7 |
| 20260503173845 | 13 | 178 | 19.3 | 25.7 | 0.00 | 0.00 | 0.00 | 40 | 1009.6 |
| 20260503173342 | 13 | 246 | 8.0 | 11.3 | 0.00 | 0.00 | 0.00 | 44 | 1009.7 |
| 20260503172838 | 12 | 269 | 16.1 | 24.1 | 0.00 | 0.00 | 0.00 | 42 | 1009.8 |
| 20260503172336 | 12 | 264 | 9.7 | 12.9 | 0.00 | 0.00 | 0.00 | 42 | 1009.9 |
| 20260503171832 | 12 | 228 | 11.3 | 16.1 | 0.00 | 0.00 | 0.00 | 42 | 1010.2 |
| 20260503171329 | 12 | 302 | 9.7 | 11.3 | 0.00 | 0.00 | 0.00 | 42 | 1010.2 |
| 20260503170826 | 12 | 204 | 6.4 | 9.7 | 0.00 | 0.00 | 0.00 | 44 | 1010.1 |
| 20260503170323 | 12 | 240 | 17.7 | 24.1 | 0.00 | 0.00 | 0.00 | 44 | 1010.2 |
| 20260503150715 | 10 | 248 | 16.1 | 20.9 | 0.00 | 0.00 | 0.00 | 46 | 1011.3 |
| 20260503150211 | 10 | 236 | 16.1 | 20.9 | 0.00 | 0.00 | 0.00 | 45 | 1011.3 |
| 20260503140136 | 7 | 172 | 12.9 | 17.7 | 0.00 | 0.00 | 0.00 | 51 | 1012.2 |
| 20260503131105 | 5 | 270 | 4.8 | 4.8 | 0.00 | 0.00 | 0.00 | 62 | 1012.9 |
| 20260503130603 | 5 | 248 | 6.4 | 8.0 | 0.00 | 0.00 | 0.00 | 65 | 1012.9 |
| 20260503110453 | 0 | 234 | 1.6 | 3.2 | 0.00 | 0.00 | 0.00 | 82 | 1013.1 |
| 20260503090338 | 0 | 206 | 1.6 | 3.2 | 0.00 | 0.00 | 0.00 | 77 | 1013.1 |
| 20260503081306 | 0 | 215 | 3.2 | 3.2 | 0.00 | 0.00 | 0.00 | 75 | 1013.2 |
| 20260503080802 | 0 | 212 | 1.6 | 3.2 | 0.00 | 0.00 | 0.00 | 74 | 1013.2 |
| 20260503080259 | 0 | 248 | 3.2 | 3.2 | 0.00 | 0.00 | 0.00 | 74 | 1013.1 |
| 20260503072736 | 0 | 215 | 3.2 | 3.2 | 0.00 | 0.00 | 0.00 | 73 | 1013.3 |
| 20260503072233 | 0 | 196 | 1.6 | 1.6 | 0.00 | 0.00 | 0.00 | 73 | 1013.3 |
| 20260503071729 | 0 | 207 | 4.8 | 4.8 | 0.00 | 0.00 | 0.00 | 73 | 1013.3 |
| 20260503071226 | 0 | 210 | 1.6 | 1.6 | 0.00 | 0.00 | 0.00 | 73 | 1013.2 |
| 20260503070722 | 0 | 196 | 1.6 | 3.2 | 0.00 | 0.00 | 0.00 | 74 | 1013.4 |
| 20260503070221 | 0 | 203 | 1.6 | 1.6 | 0.00 | 0.00 | 0.00 | 75 | 1013.3 |
| 20260503060145 | -1 | 182 | 0.0 | 0.0 | 0.00 | 0.00 | 0.00 | 73 | 1014.1 |
| 20260503054632 | -1 | 191 | 0.0 | 0.0 | 0.00 | 0.00 | 0.00 | 74 | 1014.2 |
| 20260503054129 | 0 | 186 | 0.0 | 0.0 | 0.00 | 0.00 | 0.00 | 76 | 1014.3 |
| 20260503053627 | 0 | 198 | 0.0 | 0.0 | 0.00 | 0.00 | 0.00 | 70 | 1014.3 |
| 20260503053126 | -1 | 201 | 0.0 | 0.0 | 0.00 | 0.00 | 0.00 | 69 | 1014.4 |
| 20260503052621 | -1 | 197 | 0.0 | 0.0 | 0.00 | 0.00 | 0.00 | 70 | 1014.6 |
| 20260503052118 | -1 | 198 | 0.0 | 0.0 | 0.00 | 0.00 | 0.00 | 70 | 1014.6 |
| 20260503051613 | -1 | 200 | 1.6 | 1.6 | 0.00 | 0.00 | 0.00 | 72 | 1014.7 |
| 20260503051112 | -1 | 191 | 0.0 | 0.0 | 0.00 | 0.00 | 0.00 | 74 | 1014.4 |
| 20260503050608 | -1 | 186 | 0.0 | 0.0 | 0.00 | 0.00 | 0.00 | 76 | 1014.6 |
| 20260503050105 | -1 | 186 | 0.0 | 0.0 | 0.00 | 0.00 | 0.00 | 74 | 1014.5 |
| 20260503045602 | -1 | 186 | 0.0 | 0.0 | 0.00 | 0.00 | 0.00 | 78 | 1014.9 |
| 20260503045059 | -1 | 186 | 0.0 | 0.0 | 0.00 | 0.00 | 0.00 | 77 | 1014.6 |
| 20260503044555 | -1 | 186 | 0.0 | 0.0 | 0.00 | 0.00 | 0.00 | 76 | 1014.7 |
| 20260503044053 | -1 | 186 | 0.0 | 0.0 | 0.00 | 0.00 | 0.00 | 76 | 1014.8 |
| 20260503043549 | -1 | 186 | 0.0 | 0.0 | 0.00 | 0.00 | 0.00 | 73 | 1014.7 |
| 20260503043046 | -1 | 186 | 0.0 | 0.0 | 0.00 | 0.00 | 0.00 | 74 | 1014.8 |
| 20260503042543 | -1 | 186 | 0.0 | 0.0 | 0.00 | 0.00 | 0.00 | 71 | 1014.6 |
| 20260503042039 | -1 | 186 | 0.0 | 0.0 | 0.00 | 0.00 | 0.00 | 71 | 1014.8 |
| 20260503041536 | -1 | 186 | 0.0 | 0.0 | 0.00 | 0.00 | 0.00 | 71 | 1014.7 |
| 20260503041034 | 0 | 186 | 0.0 | 0.0 | 0.00 | 0.00 | 0.00 | 71 | 1015.0 |
| 20260503040531 | 0 | 194 | 0.0 | 0.0 | 0.00 | 0.00 | 0.00 | 71 | 1014.8 |
| 20260503040028 | -1 | 190 | 0.0 | 0.0 | 0.00 | 0.00 | 0.00 | 76 | 1014.7 |
| 20260503035525 | -1 | 188 | 0.0 | 0.0 | 0.00 | 0.00 | 0.00 | 79 | 1015.0 |
| 20260503035022 | -1 | 191 | 0.0 | 0.0 | 0.00 | 0.00 | 0.00 | 76 | 1014.9 |
| 20260503034519 | -1 | 182 | 0.0 | 0.0 | 0.00 | 0.00 | 0.00 | 76 | 1014.9 |
| 20260503034017 | -1 | 186 | 0.0 | 0.0 | 0.00 | 0.00 | 0.00 | 76 | 1015.0 |
| 20260503033514 | -1 | 186 | 0.0 | 0.0 | 0.00 | 0.00 | 0.00 | 79 | 1015.1 |
| 20260503033012 | -1 | 186 | 0.0 | 0.0 | 0.00 | 0.00 | 0.00 | 78 | 1015.0 |
| 20260503032510 | -1 | 186 | 0.0 | 0.0 | 0.00 | 0.00 | 0.00 | 78 | 1015.0 |
| 20260503032008 | -1 | 186 | 0.0 | 0.0 | 0.00 | 0.00 | 0.00 | 76 | 1015.1 |
| 20260503031505 | -1 | 186 | 0.0 | 0.0 | 0.00 | 0.00 | 0.00 | 76 | 1015.1 |
| 20260503031002 | 0 | 188 | 0.0 | 0.0 | 0.00 | 0.00 | 0.00 | 80 | 1015.0 |
| 20260503030458 | -1 | 186 | 0.0 | 0.0 | 0.00 | 0.00 | 0.00 | 80 | 1015.0 |
| 20260503025955 | -1 | 189 | 0.0 | 0.0 | 0.00 | 0.00 | 0.00 | 78 | 1015.1 |
| 20260503025452 | 0 | 188 | 0.0 | 0.0 | 0.00 | 0.00 | 0.00 | 80 | 1015.3 |
| 20260503024949 | 0 | 188 | 0.0 | 0.0 | 0.00 | 0.00 | 0.00 | 77 | 1015.1 |
| 20260503024445 | 0 | 188 | 0.0 | 0.0 | 0.00 | 0.00 | 0.00 | 72 | 1015.1 |
| 20260503023943 | 0 | 188 | 0.0 | 0.0 | 0.00 | 0.00 | 0.00 | 73 | 1015.2 |
| 20260503023440 | 0 | 188 | 0.0 | 0.0 | 0.00 | 0.00 | 0.00 | 68 | 1015.2 |
| 20260503022937 | 0 | 191 | 0.0 | 0.0 | 0.00 | 0.00 | 0.00 | 68 | 1015.5 |
| 20260503022432 | 0 | 191 | 0.0 | 0.0 | 0.00 | 0.00 | 0.00 | 70 | 1015.3 |
| 20260503021928 | 0 | 191 | 0.0 | 0.0 | 0.00 | 0.00 | 0.00 | 71 | 1015.4 |
| 20260503021424 | 0 | 189 | 0.0 | 0.0 | 0.00 | 0.00 | 0.00 | 72 | 1015.2 |
| 20260503020922 | 0 | 191 | 0.0 | 0.0 | 0.00 | 0.00 | 0.00 | 70 | 1015.1 |
| 20260503020419 | 0 | 186 | 0.0 | 0.0 | 0.00 | 0.00 | 0.00 | 69 | 1015.0 |
| 20260503015915 | 0 | 183 | 0.0 | 0.0 | 0.00 | 0.00 | 0.00 | 67 | 1015.2 |
| 20260503015413 | 1 | 188 | 0.0 | 0.0 | 0.00 | 0.00 | 0.00 | 65 | 1015.2 |
| 20260503014908 | 1 | 186 | 0.0 | 0.0 | 0.00 | 0.00 | 0.00 | 65 | 1015.3 |
| 20260503014406 | 1 | 191 | 0.0 | 0.0 | 0.00 | 0.00 | 0.00 | 60 | 1015.4 |
| 20260503013904 | 1 | 188 | 0.0 | 0.0 | 0.00 | 0.00 | 0.00 | 55 | 1015.2 |
| 20260503013400 | 2 | 192 | 0.0 | 0.0 | 0.00 | 0.00 | 0.00 | 52 | 1015.0 |
| 20260503012857 | 2 | 185 | 0.0 | 0.0 | 0.00 | 0.00 | 0.00 | 52 | 1015.2 |
| 20260503012355 | 2 | 198 | 0.0 | 0.0 | 0.00 | 0.00 | 0.00 | 49 | 1015.0 |
| 20260503011852 | 2 | 198 | 0.0 | 0.0 | 0.00 | 0.00 | 0.00 | 49 | 1015.0 |
| 20260503011349 | 2 | 222 | 0.0 | 0.0 | 0.00 | 0.00 | 0.00 | 48 | 1015.0 |
| 20260503010845 | 2 | 196 | 0.0 | 0.0 | 0.00 | 0.00 | 0.00 | 48 | 1014.9 |
| 20260503010342 | 2 | 199 | 0.0 | 0.0 | 0.00 | 0.00 | 0.00 | 48 | 1015.1 |
| 20260503005839 | 2 | 200 | 0.0 | 0.0 | 0.00 | 0.00 | 0.00 | 48 | 1015.1 |
| 20260503005337 | 2 | 198 | 0.0 | 1.6 | 0.00 | 0.00 | 0.00 | 47 | 1015.0 |
| 20260503004833 | 2 | 209 | 1.6 | 1.6 | 0.00 | 0.00 | 0.00 | 47 | 1015.0 |
| 20260503004330 | 3 | 197 | 0.0 | 0.0 | 0.00 | 0.00 | 0.00 | 47 | 1014.8 |
| 20260503003828 | 3 | 191 | 0.0 | 0.0 | 0.00 | 0.00 | 0.00 | 45 | 1014.8 |
| 20260503003324 | 3 | 193 | 0.0 | 0.0 | 0.00 | 0.00 | 0.00 | 45 | 1014.9 |
| 20260503002821 | 3 | 190 | 0.0 | 0.0 | 0.00 | 0.00 | 0.00 | 44 | 1015.1 |
| 20260503002318 | 3 | 190 | 0.0 | 0.0 | 0.00 | 0.00 | 0.00 | 44 | 1014.7 |
| 20260503001815 | 3 | 173 | 0.0 | 1.6 | 0.00 | 0.00 | 0.00 | 42 | 1014.7 |
| 20260503001311 | 4 | 144 | 3.2 | 3.2 | 0.00 | 0.00 | 0.00 | 42 | 1014.7 |
| 20260503000809 | 4 | 153 | 0.0 | 1.6 | 0.00 | 0.00 | 0.00 | 40 | 1014.9 |
| 20260503000306 | 4 | 43 | 3.2 | 4.8 | 0.00 | 0.00 | 0.00 | 40 | 1014.8 |
| 20260502235803 | 5 | 50 | 1.6 | 3.2 | 0.00 | 0.00 | 0.00 | 39 | 1014.9 |
| 20260502235300 | 5 | 2 | 4.8 | 4.8 | 0.00 | 0.00 | 0.00 | 37 | 1014.7 |
| 20260502234757 | 5 | 348 | 3.2 | 3.2 | 0.00 | 0.00 | 0.00 | 36 | 1014.8 |
| 20260502234254 | 5 | 314 | 3.2 | 4.8 | 0.00 | 0.00 | 0.00 | 36 | 1014.6 |
| 20260502233750 | 5 | 356 | 4.8 | 4.8 | 0.00 | 0.00 | 0.00 | 38 | 1015.0 |
| 20260502233247 | 5 | 114 | 0.0 | 1.6 | 0.00 | 0.00 | 0.00 | 40 | 1014.8 |
| 20260502232743 | 5 | 137 | 3.2 | 3.2 | 0.00 | 0.00 | 0.00 | 38 | 1015.0 |
| 20260502232240 | 5 | 245 | 4.8 | 8.0 | 0.00 | 0.00 | 0.00 | 37 | 1014.8 |
| 20260502231737 | 6 | 352 | 1.6 | 1.6 | 0.00 | 0.00 | 0.00 | 38 | 1014.8 |
| 20260502231234 | 6 | 264 | 1.6 | 4.8 | 0.00 | 0.00 | 0.00 | 40 | 1014.7 |
| 20260502230733 | 6 | 341 | 4.8 | 4.8 | 0.00 | 0.00 | 0.00 | 38 | 1014.8 |
| 20260502230231 | 6 | 209 | 4.8 | 11.3 | 0.00 | 0.00 | 0.00 | 38 | 1014.7 |
| 20260502225727 | 6 | 67 | 3.2 | 4.8 | 0.00 | 0.00 | 0.00 | 38 | 1014.8 |
| 20260502225224 | 6 | 349 | 4.8 | 4.8 | 0.00 | 0.00 | 0.00 | 37 | 1014.7 |
| 20260502224720 | 6 | 271 | 1.6 | 1.6 | 0.00 | 0.00 | 0.00 | 37 | 1014.8 |
| 20260502224217 | 6 | 278 | 9.7 | 11.3 | 0.00 | 0.00 | 0.00 | 37 | 1014.8 |
| 20260502223714 | 6 | 303 | 6.4 | 9.7 | 0.00 | 0.00 | 0.00 | 37 | 1014.7 |
| 20260502223213 | 6 | 337 | 6.4 | 8.0 | 0.00 | 0.00 | 0.00 | 37 | 1014.8 |
| 20260502222710 | 6 | 230 | 3.2 | 4.8 | 0.00 | 0.00 | 0.00 | 37 | 1014.8 |
| 20260502222206 | 7 | 264 | 4.8 | 9.7 | 0.00 | 0.00 | 0.00 | 37 | 1014.7 |
| 20260502221702 | 7 | 234 | 1.6 | 1.6 | 0.00 | 0.00 | 0.00 | 37 | 1014.8 |
| 20260502221159 | 7 | 248 | 3.2 | 4.8 | 0.00 | 0.00 | 0.00 | 36 | 1014.7 |
| 20260502220655 | 7 | 189 | 4.8 | 8.0 | 0.00 | 0.00 | 0.00 | 38 | 1014.7 |
| 20260502220152 | 6 | 95 | 4.8 | 9.7 | 0.00 | 0.00 | 0.00 | 38 | 1014.9 |